Regional Weather Roundup
Issued by NWS Charleston, WV

Home | Current Version | Previous Version | Text Only | Print | Product List | Glossary On
Versions: 1 2 3 4 5 6 7 8 9 10 11 12 13 14 15 16 17 18 19 20 21 22 23 24 25 26 27
000
ASUS41 KRLX 250110
RWRRLX
Regional Weather Roundup
National Weather Service Charleston WV
900 PM EDT TUE MAY 24 2022

Note: "fair" indicates few or no clouds below 12,000 feet with no
significant weather and/or obstructions to visibility.

WVZ003-250200-
Northern Panhandle of West Virginia

CITY           SKY/WX    TMP DP  RH WIND       PRES   REMARKS
WHEELING       MOCLDY    65  56  72 E10       30.19R
$$

WVZ009-250200-
Northwest West Virginia

CITY           SKY/WX    TMP DP  RH WIND       PRES   REMARKS
PARKERSBURG    PTCLDY    68  60  75 E3        30.16S
$$

WVZ006-250200-
Western West Virginia

CITY           SKY/WX    TMP DP  RH WIND       PRES   REMARKS
HUNTINGTON     PTCLDY    67  59  75 E3        30.14S
POINT PLEASANT MOCLDY    67  62  84 CALM      30.17R
$$

WVZ015-250200-
West Central West Virginia

CITY           SKY/WX    TMP DP  RH WIND       PRES   REMARKS
CHARLESTON     PTCLDY    64  61  90 E3        30.17R
$$

WVZ509-031-039-250200-
North Central West Virginia

CITY           SKY/WX    TMP DP  RH WIND       PRES   REMARKS
MORGANTOWN     CLOUDY    64  53  67 E7        30.21R
CLARKSBURG     CLOUDY    67  59  75 E9        30.18R
BUCKHANNON     CLOUDY    66  57  72 E5        30.20R
$$

WVZ515-516-025-034-042-507-250200-
Southern West Virginia

CITY           SKY/WX    TMP DP  RH WIND       PRES   REMARKS
BECKLEY        CLOUDY    61  56  83 SE8       30.23R
LOGAN          FAIR      64  64 100 E5        30.17S
PINEVILLE      CLOUDY    66  58  75 MISG      30.24R
BLUEFIELD      CLOUDY    58  55  90 VRB5      30.24R
LEWISBURG      CLOUDY    59  56  90 CALM      30.26R
$$

WVZ525-526-250200-
Northern Mountains of West Virginia

CITY           SKY/WX    TMP DP  RH WIND       PRES   REMARKS
ELKINS         CLOUDY    62  53  72 VRB3      30.23R
$$

WVZ502-504-052-250200-
Eastern Panhandle of West Virginia

CITY           SKY/WX    TMP DP  RH WIND       PRES   REMARKS
PETERSBURG     CLOUDY    60  60 100 CALM      30.27S
CUMBERLAND     CLOUDY    61  56  84 SE3       30.30S
MARTINSBURG    CLOUDY    59  54  83 CALM      30.27R
$$

OHZ075-083-KYZ101-250200-
Southeast Ohio/Northeast Kentucky

CITY           SKY/WX    TMP DP  RH WIND       PRES   REMARKS
ATHENS         CLOUDY    67  62  85 CALM      30.16R
JACKSON        MOCLDY    64  61  88 CALM      30.17R
ASHLAND        CLOUDY    67  65  93 CALM      30.15S
$$



USA.gov is the U.S. government's official web portal to all federal, state and local government web resources and services.